Location: Spring Creek
(38.2870°N, 100.2160°W)
Time: 09:06:22
(UTC+00:00)

ADEOS Rocket - Pass Details

Date: 08 May 2021
Orbit: 858 x 1307 km, 98.7° (Epoch: 21 June)

Event Time Altitude Azimuth Distance (km) Brightness Sun altitude
Exits shadow 09:37:20 17° 178° (S) 2,609 4.8 -20.3°
Maximum altitude 09:43:07 69° 258° (WSW) 1,314 3.4 -19.5°
Drops below altitude 10° 09:50:47 10° 342° (NNW) 3,305 6.0 -18.4°
Sets 09:53:35 0° 345° (NNW) 4,298 6.7 -17.9°
